Location: Pel�-Koumbol�
(14.9505°N, 3.0798°W)
Time: 20:51:58
(UTC+00:00)

Cosmos 1302 Rocket - Pass Details

Date: 17 February 2020
Orbit: 756 x 776 km, 74.0° (Epoch: 07 April)

Event Time Altitude Azimuth Distance (km) Brightness Sun altitude
Exits shadow 04:48:56 76° 350° (N) 786 3.9 -26.4°
Maximum altitude 04:49:21 89° 78° (ENE) 767 3.9 -26.3°
Drops below altitude 10° 04:54:34 10° 167° (SSE) 2,299 6.7 -25.0°
Sets 04:56:57 0° 167° (SSE) 3,227 7.5 -24.4°
